Theta_e
331 330 330 329 328 328 329 329 328 327 327 327 326 326 327 328 328 328 328 328 329 329 329 330 330 331 331 331 331 331 331 330 329 328 329 329 328 327 327 327 328 327 325 325 325 325 326 327 327 326 325 325 325 324 323 323 323 323 322 322 323 323 324
329 328 327 327 327 327 327 328 327 327 327 325 325 325 326 326 326 326 326 327 327 327 328 328 329 329 330 330 330 330 330 330 330 329 328 329 329 328 328 327 327 326 325 325 325 324 325 326 328 326 325 324 323 323 323 323 323 322 322 323 323 323 324
329 328 328 328 328 328 327 328 328 328 327 325 325 325 325 325 325 325 325 325 326 326 326 327 327 328 328 329 329 329 329 329 329 329 328 329 329 328 328 328 327 325 324 324 324 324 325 326 327 326 325 323 321 320 322 323 322 322 322 322 323 323 323
330 329 329 328 327 327 327 328 328 327 326 325 325 326 325 325 324 324 324 325 325 325 326 327 327 327 328 328 328 328 328 329 329 328 328 328 328 329 328 328 327 326 325 325 324 324 325 326 326 325 323 321 319 317 319 322 321 321 322 321 321 321 320
330 329 328 327 325 326 327 327 327 326 325 325 324 325 325 324 324 324 324 324 324 325 326 327 327 328 328 327 327 327 328 328 327 327 328 328 328 328 328 328 327 326 325 325 324 324 325 325 325 323 320 319 317 313 315 318 319 319 318 317 316 315 314
330 329 327 325 325 325 325 325 325 325 324 324 323 324 324 324 324 324 324 322 322 323 325 327 328 328 328 327 327 327 327 327 327 327 327 328 328 328 328 328 327 325 325 325 325 324 324 324 323 321 318 316 314 312 312 312 312 312 311 310 310 309 309
329 328 326 325 324 324 323 323 323 323 323 323 323 323 323 323 324 324 323 321 320 320 324 327 327 327 327 327 326 327 327 326 326 327 327 328 328 328 328 328 326 325 325 325 325 324 324 323 321 318 316 315 315 314 312 310 310 309 308 308 308 307 307
327 325 325 325 324 324 323 322 323 323 323 323 323 323 322 323 325 324 322 321 320 319 322 325 326 326 326 326 326 326 327 326 326 326 327 327 327 328 328 328 326 326 326 325 325 324 324 323 320 316 315 317 318 316 312 311 312 311 307 307 306 305 304
325 324 325 324 324 324 323 322 323 323 323 323 323 322 321 321 323 324 322 321 320 318 321 324 325 324 323 324 325 326 326 326 325 326 326 326 326 326 327 327 327 326 326 325 325 324 324 322 319 317 316 317 317 316 314 314 314 311 307 306 305 303 302
324 324 324 325 324 324 323 323 323 323 323 323 323 322 321 321 321 323 323 321 321 319 320 323 324 323 319 320 324 324 324 323 323 323 324 324 325 325 326 327 327 327 326 325 325 324 323 320 318 318 317 316 316 316 317 317 316 312 309 307 305 302 301
323 323 324 324 324 323 323 323 323 323 322 322 322 321 321 320 320 323 323 321 320 320 320 321 323 323 319 318 322 322 320 319 319 321 323 324 325 325 326 326 326 326 325 325 324 324 322 319 318 317 317 317 316 316 316 317 317 313 309 308 307 303 301
322 323 324 324 323 323 323 323 322 321 321 321 320 320 320 320 319 322 323 321 320 319 318 319 321 323 319 317 319 319 317 317 320 322 323 324 325 326 325 325 325 326 325 324 324 324 321 318 317 317 317 316 315 315 314 315 316 314 310 309 308 305 304
322 323 324 323 322 323 323 323 321 320 319 320 319 318 319 319 319 320 321 320 318 317 316 316 320 321 318 316 317 316 315 318 320 320 321 322 325 325 325 325 325 325 324 323 323 323 321 318 317 316 316 315 313 314 314 313 314 314 310 309 308 307 306
322 322 322 322 323 323 323 323 320 318 318 319 319 318 318 319 318 318 319 318 316 315 313 314 317 319 316 315 315 314 314 316 316 316 316 319 322 324 325 324 325 325 324 323 323 322 320 318 317 317 316 316 314 314 314 312 312 312 311 311 309 307 307
322 321 321 321 323 323 323 323 320 318 317 318 319 317 317 319 318 317 317 316 315 314 313 314 316 316 315 314 314 314 314 314 314 314 313 315 318 321 323 324 323 324 323 322 322 322 321 319 319 318 318 317 317 316 314 312 310 310 311 311 310 308 307
322 321 321 322 323 322 323 323 321 318 317 317 317 316 317 318 318 317 316 316 314 314 314 314 315 315 315 315 314 314 314 313 314 314 313 313 313 315 319 321 322 322 322 322 321 321 321 320 320 320 320 319 319 318 316 314 311 309 310 311 309 308 307
322 322 322 322 322 322 323 323 321 318 317 317 315 315 316 317 318 317 317 316 314 313 313 313 313 313 314 315 315 314 314 314 314 314 314 314 313 313 313 315 317 319 320 321 321 321 321 321 320 320 320 320 320 319 318 316 314 310 308 309 308 308 307
322 322 321 321 321 322 323 322 320 318 317 316 315 314 315 316 317 317 316 316 314 313 313 313 313 313 313 314 315 315 315 316 315 315 314 314 314 313 313 313 314 314 316 317 318 319 319 319 318 317 317 318 319 319 317 316 315 312 308 308 308 307 307
321 321 321 321 322 322 323 321 319 318 317 315 314 314 314 315 315 316 316 316 315 314 314 313 314 314 314 314 315 315 315 315 315 315 315 314 313 313 313 313 314 313 314 314 315 315 315 315 315 315 315 315 315 316 316 315 315 313 310 308 308 307 307
321 321 321 321 322 321 321 320 318 318 317 316 314 315 315 314 314 315 316 316 315 315 314 314 314 314 314 314 314 315 315 315 315 314 314 314 313 313 312 313 313 313 313 314 314 314 314 314 314 314 314 313 312 314 314 313 313 312 310 308 308 307 307
321 320 319 319 319 319 318 318 318 317 317 315 315 315 315 315 315 315 316 316 315 315 315 315 315 314 314 315 315 315 315 315 315 314 314 314 314 313 313 315 315 314 313 313 313 314 314 314 315 314 314 312 311 312 312 312 311 310 308 307 307 307 307
320 318 317 316 316 315 315 316 317 317 317 316 316 316 316 316 316 315 315 315 315 315 315 315 316 315 315 316 316 315 314 314 315 314 314 314 314 313 314 315 316 316 315 315 315 316 316 316 315 315 314 313 311 310 310 309 309 308 307 307 307 307 307
318 317 316 314 314 314 314 315 314 315 316 317 317 317 316 316 317 316 316 315 315 315 315 316 316 316 316 316 316 315 315 314 314 315 314 314 314 315 314 315 316 317 317 317 317 317 317 317 317 316 315 314 313 311 309 309 308 307 307 307 307 307 307
318 318 318 317 316 316 316 315 313 313 316 318 318 318 317 317 317 317 317 316 316 316 316 316 316 316 317 317 316 316 315 315 315 315 315 314 315 316 315 315 316 317 318 318 317 318 317 317 318 317 316 315 314 313 313 311 310 309 309 308 307 307 307
318 318 319 318 318 316 316 316 314 314 317 319 318 318 318 318 318 318 318 318 317 317 317 317 317 317 318 318 317 316 315 315 316 317 317 316 316 317 317 317 317 318 319 319 318 318 318 318 317 317 317 316 315 314 314 314 314 313 312 311 309 308 308
318 318 318 318 318 317 317 318 318 319 319 319 319 319 319 318 318 318 317 317 317 317 317 317 317 317 317 318 318 318 317 316 317 318 318 318 318 318 318 318 318 319 319 319 319 319 319 319 319 318 317 316 315 315 314 314 314 314 313 313 313 312 311
319 319 319 319 319 319 320 320 320 320 320 319 319 319 319 319 319 318 318 318 318 318 317 317 317 317 317 318 318 318 318 317 318 318 319 319 319 318 318 319 320 320 320 320 320 320 320 320 319 319 318 317 316 316 316 315 314 314 314 314 313 314 314
319 318 319 320 320 320 320 320 320 320 320 321 321 321 321 320 320 319 319 318 318 318 318 318 318 318 318 318 319 319 319 319 320 320 319 319 320 320 319 319 320 321 321 321 321 320 320 319 319 319 318 318 317 316 316 316 316 316 315 314 313 313 313
314 314 315 317 318 319 319 319 319 319 320 321 321 321 321 320 319 318 318 318 318 318 319 319 319 319 319 319 319 319 319 319 319 319 319 319 319 319 319 319 320 320 320 320 319 319 319 319 319 319 318 317 316 316 316 316 316 316 315 313 313 313 313
307 307 308 310 312 315 317 318 319 319 320 321 321 321 321 320 319 318 318 319 319 319 319 319 318 318 318 318 318 319 318 318 318 318 319 319 320 319 319 319 320 320 319 318 317 317 317 318 318 318 317 316 315 315 315 315 315 314 313 312 312 312 312
303 304 304 304 305 307 309 311 312 313 314 315 316 317 318 319 320 319 319 320 320 320 320 319 318 318 317 317 318 319 319 319 319 319 319 319 319 319 319 319 319 318 318 317 317 317 317 317 317 318 317 315 314 314 314 314 313 312 311 311 312 312 312
302 302 302 303 303 303 303 304 304 305 305 306 307 308 309 311 313 314 314 315 316 317 318 318 318 319 318 318 319 319 319 319 319 319 319 319 319 319 318 318 318 318 317 317 317 317 317 317 317 317 317 315 314 314 314 313 312 312 311 311 311 310 309
301 301 301 302 302 302 303 303 303 303 303 303 304 304 304 305 307 307 307 308 308 309 311 312 313 314 315 317 318 318 318 318 318 319 319 319 319 319 319 319 319 318 318 317 317 317 317 316 316 317 317 315 315 315 314 312 311 311 310 310 309 308 307
300 300 300 300 301 301 302 303 304 304 303 303 303 304 303 304 304 305 305 305 306 306 307 307 308 309 310 312 314 315 316 317 317 317 317 317 317 317 317 318 318 318 317 317 317 317 317 316 316 317 317 317 316 316 314 312 310 309 309 308 307 306 305
299 299 299 299 300 300 300 301 302 302 302 302 303 303 303 302 302 302 302 303 303 304 304 305 306 307 308 308 310 311 313 314 315 316 315 315 315 315 316 317 317 317 317 317 317 317 317 316 316 317 317 317 316 315 314 312 309 307 307 306 305 304 304
298 298 298 298 299 299 299 299 300 300 300 301 301 301 301 301 301 301 301 301 301 302 302 303 304 305 306 307 307 308 309 310 312 314 315 315 315 315 315 316 316 316 316 315 315 315 315 316 316 317 317 316 314 311 310 310 308 306 306 305 304 303 303
297 297 297 297 298 298 298 298 298 299 299 299 299 299 299 300 300 300 300 300 301 300 300 301 302 303 304 305 306 307 307 308 309 310 312 313 314 314 314 315 315 316 315 314 312 311 312 314 315 316 316 315 312 309 308 307 306 306 305 304 304 303 302
Wind_Speed
20 19 18 17 17 16 17 16 15 14 12 11 10 10 10 9 9 8 8 8 8 8 8 8 9 9 9 10 10 10 12 13 13 14 16 16 16 13 8 5 1 5 11 9 8 9 6 3 5 7 11 14 14 12 10 9 9 9 10 10 10 10 10
20 20 19 18 17 17 17 17 16 13 11 10 10 9 9 9 8 7 8 8 7 7 7 7 8 8 8 9 9 9 10 12 12 12 14 16 17 15 11 6 4 9 11 7 10 13 8 5 5 4 8 13 13 11 10 9 9 10 11 11 11 12 11
20 20 19 17 16 16 18 17 15 13 11 10 10 9 9 8 7 6 6 7 6 5 6 7 7 6 7 8 9 9 9 10 11 11 12 14 15 16 12 8 8 12 10 7 11 14 10 6 5 6 7 9 8 8 9 8 9 9 10 10 11 11 12
22 21 19 17 16 16 17 17 15 14 12 11 10 10 9 7 6 5 5 5 4 4 5 6 6 5 6 7 8 8 9 9 10 10 11 11 13 15 13 10 9 12 11 10 14 17 13 9 7 7 8 10 8 7 8 8 8 8 8 9 10 10 11
23 22 20 18 17 17 18 17 16 14 12 11 11 10 9 7 6 6 4 3 2 3 4 5 6 6 6 6 7 7 8 8 8 9 10 10 12 15 14 11 11 13 12 12 16 18 16 16 14 9 8 9 7 7 8 8 8 8 8 8 10 11 12
23 23 21 20 19 19 19 18 16 15 13 12 11 11 10 8 8 9 7 4 3 3 4 5 5 6 6 6 6 6 6 7 7 7 9 10 11 13 13 11 12 13 9 9 15 18 18 21 19 12 9 8 8 8 7 8 9 9 9 10 10 11 12
23 23 23 21 20 19 18 18 17 15 14 13 11 10 9 8 10 11 9 7 5 3 3 5 5 5 5 5 6 7 6 5 6 7 8 9 10 12 11 10 12 13 8 9 15 18 20 22 21 17 13 9 8 8 5 5 7 6 7 10 11 11 11
24 24 23 22 21 19 18 17 17 15 13 12 11 10 9 9 11 11 10 9 6 3 3 4 5 5 4 4 5 6 6 5 6 6 7 9 10 11 11 10 12 12 8 10 15 16 19 23 24 26 23 12 4 3 3 3 2 3 7 10 10 10 10
25 24 23 22 21 19 17 16 15 14 13 13 11 10 9 8 10 12 11 10 7 4 3 4 4 5 5 4 5 6 6 6 5 6 6 8 9 10 10 10 11 10 7 10 14 14 18 23 25 26 26 20 10 2 1 1 0 3 8 9 8 10 11
25 23 23 22 20 17 15 14 13 13 14 13 12 10 8 7 8 11 12 10 8 6 4 4 4 5 4 4 6 6 6 5 5 5 5 6 7 8 10 10 10 9 7 10 13 14 18 23 24 22 21 21 19 9 1 1 1 4 8 8 7 9 12
23 21 20 20 18 17 16 14 13 13 13 13 12 10 8 7 7 11 11 9 9 7 5 5 5 5 4 4 6 7 6 5 5 4 4 4 5 7 8 9 9 8 7 10 12 14 19 22 22 21 17 17 18 14 8 4 2 5 10 10 7 10 14
20 19 19 19 19 17 17 15 13 13 13 13 12 10 9 8 8 10 11 9 8 6 6 6 6 6 5 5 7 8 6 5 5 5 4 3 4 5 6 7 8 8 8 9 11 15 20 21 20 19 16 15 14 13 15 12 4 7 12 11 9 12 15
19 19 20 20 20 18 16 14 12 12 12 12 11 8 8 9 8 10 10 9 7 5 5 6 7 7 7 8 9 9 7 6 6 6 5 4 4 5 6 7 8 8 8 9 11 17 20 19 18 17 15 15 11 8 15 14 7 8 13 11 10 13 15
19 19 20 19 18 17 16 13 10 10 11 11 10 8 8 10 9 9 9 8 6 4 5 7 8 9 9 10 11 9 8 7 7 7 6 5 6 6 7 7 8 8 8 9 13 18 19 17 17 16 14 15 11 8 12 12 8 10 13 11 10 13 15
19 19 19 18 17 16 15 13 10 10 10 11 10 8 10 11 10 9 8 7 6 5 5 6 8 10 10 10 10 9 7 7 7 7 7 6 6 7 8 8 9 9 9 10 14 16 17 16 16 16 16 16 15 12 12 10 10 13 14 13 12 13 15
20 19 19 18 17 17 15 13 11 10 10 11 10 10 11 11 10 9 8 6 6 6 7 6 7 9 10 9 9 8 7 7 7 7 7 7 7 6 7 8 9 10 11 12 14 15 16 16 16 17 17 18 19 18 15 12 10 13 16 15 13 14 16
20 20 19 18 18 17 16 14 12 11 10 11 10 10 11 11 10 9 8 7 6 7 7 7 6 8 9 9 8 7 7 6 6 6 6 6 6 5 6 6 7 8 10 13 15 16 16 17 17 18 19 19 21 22 19 16 13 13 17 18 16 16 17
21 20 19 18 18 18 17 15 13 12 11 11 10 10 10 10 9 9 8 7 7 6 6 6 6 7 8 8 8 7 6 6 5 5 4 4 4 4 3 4 4 5 6 8 11 14 14 15 15 15 16 17 20 22 21 19 16 14 14 17 18 17 17
20 20 20 19 19 18 18 17 14 12 12 11 10 9 8 7 7 8 8 7 7 6 6 6 6 5 6 7 7 7 6 5 4 4 4 4 3 3 2 2 2 2 2 3 6 9 10 11 12 13 13 13 15 18 20 19 19 16 13 14 17 18 18
19 19 19 18 17 16 17 16 13 14 13 11 9 8 6 6 6 7 7 7 7 6 6 6 6 6 6 6 6 6 6 5 4 4 4 4 3 2 2 2 2 2 2 2 3 4 5 6 8 10 11 10 10 12 15 17 19 18 15 14 16 18 18
18 18 17 16 15 14 13 11 10 11 13 10 8 6 5 4 5 7 8 8 8 8 7 6 6 7 7 5 5 6 7 6 5 5 5 5 4 3 2 2 2 2 3 3 2 2 3 4 5 7 8 9 9 9 12 16 19 18 16 14 15 17 17
20 20 18 15 13 10 8 9 8 9 8 7 8 8 5 5 6 7 8 9 11 11 9 8 7 7 7 6 6 6 6 6 6 6 6 7 7 6 5 4 4 3 3 3 3 3 3 4 5 6 7 8 9 9 11 14 17 17 15 14 14 15 16
22 21 18 15 12 7 5 7 9 8 6 6 10 11 8 7 8 8 9 10 12 12 12 10 9 8 8 8 8 8 8 8 8 9 9 9 8 8 8 8 7 6 6 7 6 6 6 6 6 6 7 8 9 10 12 14 16 17 16 15 15 15 16
17 17 15 14 12 11 12 13 14 11 9 10 13 13 11 11 11 11 11 12 13 13 13 12 12 11 10 10 10 10 11 11 11 12 12 11 10 10 10 11 10 10 10 10 10 10 9 8 8 7 8 9 10 11 12 13 15 16 16 16 17 17 18
13 13 12 12 13 13 13 15 15 13 12 13 14 14 13 13 13 13 12 13 15 15 14 13 13 14 13 13 13 13 13 14 14 13 13 13 12 12 12 13 14 13 13 13 13 12 12 11 10 10 10 11 12 13 13 13 14 15 16 17 18 19 20
11 10 10 10 11 11 10 9 9 8 8 10 11 12 12 12 13 14 13 13 14 15 15 15 15 16 17 16 16 16 16 16 16 16 16 16 16 15 15 16 17 17 16 16 16 16 15 14 13 13 13 14 15 16 16 16 16 16 15 16 17 18 19
10 10 10 10 9 9 9 7 6 5 5 6 7 8 9 10 11 12 12 12 12 12 14 15 16 17 17 18 18 18 18 18 18 18 18 19 19 19 18 19 19 19 19 19 19 19 18 18 17 17 18 18 18 19 19 19 19 18 17 17 18 17 17
11 10 10 9 9 8 8 7 7 7 6 5 5 5 5 5 6 7 7 8 8 7 8 10 11 11 11 12 14 16 16 17 18 19 20 20 21 21 21 21 22 22 21 20 20 20 19 19 19 20 21 21 21 21 21 21 20 19 18 18 16 13 13
16 14 13 11 10 8 7 7 8 7 6 5 4 4 3 2 3 5 5 5 6 6 7 7 6 6 8 10 12 14 15 16 17 19 21 22 22 23 23 23 23 23 22 21 21 20 19 19 20 21 23 23 23 22 22 21 20 19 17 16 11 9 10
21 19 18 17 15 12 10 8 7 5 5 4 3 3 3 3 3 4 3 4 5 5 7 9 10 10 11 12 12 12 13 15 17 19 21 21 22 23 24 24 24 24 24 24 23 21 20 20 21 22 23 24 24 23 21 21 20 17 16 15 12 11 12
22 21 21 21 19 17 15 12 10 8 6 5 4 3 3 3 3 3 2 3 4 5 6 10 12 12 11 12 12 11 12 15 17 19 21 21 21 22 23 24 25 26 26 26 24 22 21 21 22 23 24 25 24 23 23 22 20 19 17 15 14 13 14
20 20 19 19 19 18 18 17 15 13 11 10 9 8 7 6 4 3 2 1 3 3 4 7 10 10 9 10 11 10 11 14 16 18 19 20 20 21 22 23 24 25 25 24 23 22 22 22 22 23 24 25 25 26 26 23 21 21 19 17 17 17 18
19 18 17 15 14 14 13 13 13 13 13 13 12 12 12 11 10 10 9 6 4 3 2 3 5 6 7 9 10 10 11 13 15 17 18 19 19 20 21 22 22 22 22 22 22 22 22 21 21 22 23 25 27 28 25 21 20 20 19 18 20 21 20
18 17 16 14 13 12 11 9 8 7 8 8 9 10 11 12 12 12 12 10 9 8 6 5 5 6 6 6 7 9 11 12 13 14 16 17 18 19 20 19 19 19 19 19 19 19 20 20 19 20 22 25 27 27 24 20 20 20 20 21 22 22 20
16 15 14 13 12 13 12 11 10 8 7 6 6 6 6 7 8 9 10 10 10 10 9 8 7 7 7 7 7 8 9 10 11 13 14 16 17 17 18 18 18 18 17 16 16 17 18 18 18 19 21 23 25 26 24 22 22 23 23 23 23 21 19
15 15 14 13 12 12 11 10 10 10 9 8 7 6 6 6 6 6 7 8 9 10 9 9 9 9 9 9 9 10 10 11 11 12 14 15 16 16 17 18 19 18 17 17 17 17 18 18 18 19 20 22 23 22 21 24 25 25 24 23 22 20 19
16 15 14 13 12 12 12 11 10 9 9 8 8 8 8 8 7 7 7 7 8 8 8 8 8 9 9 9 9 10 10 11 12 13 14 14 15 16 16 18 19 19 19 19 19 18 18 18 19 19 20 22 22 18 19 25 26 26 25 23 22 21 19
Wind_Direction
155 152 154 152 149 148 147 149 149 148 149 151 151 151 153 158 161 163 168 174 181 186 188 192 199 203 201 198 201 204 204 206 208 205 199 192 192 195 193 197 196 156 166 166 160 146 123 116 117 104 104 102 92 82 81 85 91 100 102 101 100 98 97
157 153 155 155 154 154 153 155 155 154 156 159 162 161 158 159 161 163 170 173 176 178 179 182 188 195 201 203 202 202 206 209 215 220 215 208 206 206 199 187 160 155 158 158 152 140 124 135 138 118 109 98 87 83 88 92 91 98 104 103 102 99 96
161 159 160 162 164 164 163 163 163 163 164 164 166 168 165 161 159 159 164 167 171 176 179 183 185 187 195 203 207 209 212 213 216 223 225 223 219 213 207 195 166 155 151 145 148 139 125 119 118 123 115 97 87 78 81 91 94 99 105 105 104 102 101
166 165 166 168 169 169 167 167 168 168 168 164 163 168 168 163 161 161 158 160 164 169 179 184 184 184 188 195 206 210 211 213 216 218 221 226 223 213 210 213 202 185 178 174 165 152 139 129 123 117 102 97 97 83 82 94 97 101 105 108 111 109 109
172 172 172 171 169 167 163 164 166 166 165 161 161 166 169 173 182 176 169 171 156 151 169 179 176 176 178 186 198 203 202 207 212 214 211 213 215 210 209 219 218 202 194 189 178 165 154 145 134 117 107 110 103 92 100 105 106 110 111 112 116 116 116
177 177 175 171 168 165 163 163 166 165 163 162 161 163 168 179 186 178 173 172 143 126 143 157 162 167 171 178 187 191 196 204 212 212 202 199 208 211 211 214 205 193 192 197 187 173 156 144 135 124 121 124 118 113 112 112 114 116 118 121 120 120 120
179 179 175 170 168 168 168 167 168 167 165 166 166 164 164 169 174 173 170 162 140 105 114 132 141 148 157 169 174 178 184 193 202 202 195 195 202 208 210 204 192 189 194 195 188 176 160 151 144 136 125 110 110 117 116 123 126 122 128 132 129 126 127
180 179 175 172 171 173 174 173 173 173 173 174 173 168 162 165 173 174 169 157 138 103 98 112 115 115 120 147 162 172 180 184 191 193 195 198 198 202 205 197 190 192 194 187 186 183 175 165 154 145 138 127 103 93 106 131 136 146 148 142 139 139 137
180 178 176 175 177 178 179 180 181 182 182 179 177 174 165 164 177 178 170 159 144 123 113 113 111 106 102 120 140 152 166 173 181 187 194 200 200 202 201 198 196 194 188 186 186 185 181 171 161 155 149 145 141 115 83 151 82 155 156 150 146 151 149
181 180 178 178 178 179 179 182 183 183 182 179 178 179 171 165 179 182 174 163 154 141 131 131 129 121 110 119 130 137 146 151 162 175 184 194 198 201 199 198 201 198 187 184 184 183 179 171 165 164 161 155 149 141 128 192 191 179 171 163 153 158 157
184 184 182 179 178 177 178 181 185 184 181 178 177 178 176 169 176 182 178 168 160 153 145 149 152 145 132 129 136 139 141 144 153 160 162 176 185 190 194 193 197 198 182 174 180 183 180 175 171 169 169 164 157 153 153 152 186 198 182 174 164 161 159
187 187 184 181 179 178 180 183 188 187 181 179 179 177 174 168 168 177 179 173 166 161 160 166 169 161 150 146 147 142 136 136 143 141 136 155 169 171 178 180 183 183 172 167 177 183 181 179 178 176 173 170 166 167 163 152 155 198 189 181 168 163 160
190 190 187 183 181 181 184 186 188 186 180 178 178 173 169 165 162 170 177 177 173 167 164 166 167 165 160 158 153 143 135 134 135 130 123 134 144 147 154 159 164 168 167 166 172 178 181 183 185 185 182 177 175 178 173 163 150 178 187 185 173 170 169
191 191 188 184 184 185 188 187 184 181 176 176 176 168 164 164 161 166 175 179 176 172 164 158 161 166 163 161 157 149 144 144 139 134 127 127 131 137 146 150 157 166 170 168 169 175 182 187 192 196 197 196 198 191 183 177 155 159 181 189 182 181 180
191 191 187 185 187 191 191 189 185 182 179 180 179 168 163 166 165 168 176 183 187 188 177 162 163 168 167 164 164 161 161 164 158 148 139 133 132 143 156 155 156 164 170 172 173 180 188 194 201 207 212 219 226 218 201 192 168 163 178 189 189 189 187
191 190 187 185 190 195 195 192 190 189 186 185 179 166 162 167 170 174 183 194 200 197 190 180 175 176 175 172 172 174 176 182 182 172 160 148 140 148 163 164 163 168 176 182 185 191 199 204 211 219 225 231 238 236 225 213 193 177 178 184 190 193 190
193 190 186 185 192 198 199 198 196 196 195 190 179 166 162 169 175 181 190 199 201 195 190 189 185 182 183 181 177 172 167 168 173 174 173 165 154 150 158 165 170 178 187 194 201 206 212 219 225 232 239 241 242 242 233 222 217 201 185 184 189 194 194
193 191 188 188 194 199 199 198 198 200 202 195 181 168 164 175 189 194 198 204 203 198 191 187 184 182 185 187 182 173 167 164 160 161 165 164 160 154 152 156 156 169 190 205 215 221 225 232 238 242 249 249 245 243 237 225 220 217 203 194 191 192 197
191 193 192 191 194 197 196 196 198 202 207 201 189 178 168 179 202 207 207 213 216 212 202 192 187 182 185 189 188 184 183 184 179 177 178 175 170 162 158 174 166 160 176 202 224 233 235 239 244 247 252 256 252 246 240 227 218 221 224 212 199 194 199
192 194 190 186 185 184 186 191 195 202 209 207 200 195 181 182 208 217 217 222 230 230 214 200 196 192 191 195 201 208 210 205 197 197 202 203 202 197 180 189 206 208 212 220 229 242 254 257 259 259 262 266 261 250 240 227 218 220 226 220 206 200 203
187 181 171 165 163 167 177 185 192 204 209 209 216 221 202 189 211 228 232 232 236 239 229 216 214 212 212 218 225 225 219 214 211 215 230 239 239 234 224 217 229 232 230 235 244 267 295 300 293 284 281 277 269 257 237 222 216 219 223 218 208 205 207
170 162 155 148 143 148 165 174 189 209 209 209 233 242 228 214 222 234 241 238 238 242 240 234 230 231 240 250 254 247 233 228 235 241 251 260 259 256 254 255 264 269 268 266 273 289 300 304 301 293 287 279 266 254 235 222 218 220 221 216 209 206 207
165 163 162 155 150 160 195 201 211 224 227 234 245 246 237 231 233 239 243 240 239 243 246 245 242 242 251 260 264 263 254 249 252 255 258 258 258 259 258 259 263 269 276 278 278 282 285 287 288 282 278 274 262 248 236 229 226 225 223 221 217 211 207
163 167 172 175 188 218 241 239 231 232 243 252 250 246 241 240 242 247 250 246 245 248 249 249 245 244 249 255 258 256 255 257 259 261 264 261 258 260 259 260 263 265 270 274 273 274 275 275 276 273 269 267 263 255 244 236 234 231 230 229 224 218 214
166 172 178 188 202 216 226 226 227 236 252 256 250 242 240 243 246 251 255 256 254 254 253 251 246 245 248 254 258 256 253 256 259 261 267 268 267 267 267 265 265 266 269 270 269 268 268 268 268 264 258 254 254 256 252 247 245 241 239 237 231 225 224
163 175 182 186 189 190 191 197 209 229 245 246 242 240 243 247 247 248 253 258 259 257 257 256 252 250 250 251 255 258 257 260 263 264 266 267 266 268 270 268 265 265 266 266 267 268 268 269 268 261 253 247 244 247 248 249 249 246 245 244 239 236 234
142 156 167 171 171 176 179 173 175 195 215 227 232 234 237 239 240 243 248 252 256 257 258 260 259 257 256 254 254 256 258 261 262 263 265 267 266 267 270 269 265 265 267 267 268 268 266 267 268 263 256 249 245 245 245 245 246 245 245 243 242 246 243
120 126 140 152 155 159 158 152 164 187 197 200 202 203 207 221 229 231 233 237 244 253 259 264 267 266 264 258 254 253 256 259 261 262 265 268 267 267 270 270 266 267 270 270 269 269 266 265 264 261 256 251 247 244 241 241 242 243 243 241 239 241 233
100 100 109 120 128 135 138 142 159 180 191 188 186 191 188 183 200 211 222 241 253 260 263 262 267 275 274 268 263 262 262 263 264 265 267 267 266 266 270 271 268 268 269 270 271 272 271 267 261 256 251 247 242 239 236 236 235 235 236 232 219 206 201
86 86 90 93 96 102 111 123 136 153 174 182 181 194 194 173 184 206 232 268 282 280 266 259 264 272 273 272 273 273 269 266 267 269 269 268 267 266 267 267 267 269 271 273 275 276 274 269 261 253 247 242 237 233 230 229 227 223 221 215 200 192 198
81 79 78 78 79 83 87 90 92 98 106 112 114 117 121 137 178 225 245 268 291 290 256 250 261 269 270 272 276 276 271 270 270 271 271 269 268 266 265 264 266 269 272 274 276 277 276 270 262 254 246 238 233 230 228 226 221 212 207 203 197 193 191
78 77 75 74 73 73 74 73 73 75 76 78 81 82 82 91 99 82 60 320 300 294 251 250 263 270 267 268 275 278 275 273 272 272 274 274 273 270 269 268 269 270 272 274 276 277 274 269 262 256 247 238 234 233 232 228 219 210 203 195 187 182 178
73 71 70 70 69 68 67 65 61 61 64 67 71 74 77 80 83 80 75 71 62 50 13 302 295 291 279 271 270 272 273 274 275 276 278 279 277 274 272 272 273 275 277 279 278 275 271 266 261 255 246 239 237 236 233 227 217 207 197 183 176 176 175
70 69 66 63 62 62 59 53 46 40 41 40 41 53 66 73 76 77 74 69 65 57 42 20 355 338 323 303 284 274 271 271 272 275 277 279 279 277 276 276 278 281 281 278 276 273 270 266 261 253 248 245 244 242 237 225 210 197 188 179 174 173 174
70 69 67 63 62 62 59 57 55 52 47 37 23 27 44 55 62 66 63 59 53 46 37 26 11 357 348 340 330 316 302 291 283 281 282 286 288 288 288 287 286 286 284 278 273 270 267 265 259 253 252 252 251 248 237 216 197 186 181 177 172 170 172
67 68 66 64 65 65 61 58 57 57 56 55 55 54 48 40 38 41 42 42 39 33 24 15 8 360 351 344 341 338 332 323 310 297 290 291 294 295 295 293 290 289 288 285 281 276 272 266 258 253 251 249 249 246 226 202 189 183 179 176 173 172 172
59 60 60 60 63 66 65 61 60 58 56 54 54 52 49 42 33 29 28 29 32 30 20 10 2 355 348 340 335 334 336 335 331 320 307 299 294 291 290 288 288 289 289 289 287 284 281 275 264 255 248 245 245 237 212 196 188 182 179 177 177 175 171